Simultaneous Nadir Overpasses (SNOs) Predictions

Prediction of SNOs between LANDSAT-8 and METOP-A Satellite Orbit:

Table of predicted SNOs for the next 14.0 days since TLE Epoch: 11/15/2014
Index Date (LANDSAT-8) Time (LANDSAT-8) Lat,Lon (LANDSAT-8) SZA (LANDSAT-8 ) Date (METOP-A) Time (METOP-A) Lat,Lon (METOP-A) SZA (METOP-A ) Distance(km) Time Diff (sec)
1 11/15/2014 23:17:13 81.10,-129.81 102.05 11/15/2014 23:17:09 81.11,-129.70 102.06 2.09 4
2 11/16/2014 00:06:39 -81.13, 38.17 77.90 11/16/2014 00:07:49 -81.12, 38.00 77.89 2.85 70
3 11/18/2014 18:02:01 -81.10, 128.89 77.31 11/18/2014 18:00:54 -81.10, 128.95 77.34 1.06 67
4 11/18/2014 18:51:26 81.12, -63.09 102.76 11/18/2014 18:51:33 81.12, -63.14 102.75 1.07 7
5 11/21/2014 13:36:15 -81.08,-164.89 76.73 11/21/2014 13:35:19 -81.09,-164.89 76.75 0.50 56
6
